[[{"header":{"parameterUnit":"m.s-1","parameterCategory":1,"la1":30.2991,"la2":30.254,"lo1":-89.0895,"lo2":-89.0444,"dy":0.0017,"dx":0.0017,"nx":28,"ny":28,"refTime":"2025-03-08T03:00:00:Z","depth":0,"parameterNumber":2,"parameterNumberName":"U-component_of_WINDS"},"data":[0,0,0,0,0,0,0,0,0,0,0,0,0,0,0,0,0,0,0,0,0,0,0,0,0,0,0,0,0,0,0,0,0,0,0,0,0,0,0,0,0,0,0,0,0,0,0,0,0,0,0,0,0,0,0,0,0,0,7.1067,7.1068,0,7.1176,7.1177,7.1179,7.1099,7.1095,7.1092,7.1088,7.12,7.1207,7.1213,0,0,0,0,0,0,0,0,0,0,0,0,0,7.079,7.0795,7.1067,7.1068,7.1069,7.1176,7.1177,7.1179,7.1099,7.1095,7.1091,7.1087,7.1198,7.1206,7.1213,0,0,0,0,0,0,0,0,0,0,0,0,0,7.0906,7.0797,7.1066,7.1042,7.1041,7.1176,7.1178,7.1179,7.11,7.1095,7.109,7.1085,7.1196,7.1205,7.1214,7.1378,0,0,7.1243,7.1247,0,0,0,0,0,0,0,0,7.0899,7.0916,7.1045,7.1044,7.1043,7.1118,7.1121,7.1246,7.1102,7.1078,7.1088,7.1082,7.1177,7.1188,7.122,7.1383,7.1388,7.1244,7.125,7.1254,7.1256,0,0,0,0,0,0,0,7.0891,7.0911,7.111,7.1047,7.1046,7.1027,7.1037,7.1144,7.1156,7.108,7.1074,7.1088,7.1176,7.1211,7.1222,7.139,7.1244,7.1252,7.1258,7.1261,7.1696,7.1701,0,0,0,0,0,0,7.0886,7.0905,7.1106,7.1113,7.0957,7.1036,7.1048,7.11,7.1155,7.1158,7.1092,7.1084,7.1198,7.1211,7.1226,7.1423,7.1254,7.1262,7.1268,7.169,7.1697,7.1703,0,0,0,0,0,0,7.088,7.0904,7.1102,7.1008,7.1031,7.1046,7.1105,7.1105,7.114,7.1164,7.1166,7.1126,7.1194,7.1213,7.1341,7.1426,7.1267,7.1275,7.1683,7.1692,7.17,7.1818,0,0,0,0,0,0,7.0872,7.0903,7.0965,7.101,7.1037,7.1216,7.111,7.1111,7.1156,7.1146,7.1196,7.12,7.1191,7.1328,7.1351,7.1436,7.1283,7.1675,7.1687,7.1697,7.1807,7.183,7.185,0,0,0,0,0,7.0863,7.0993,7.0968,7.0993,7.1114,7.1221,7.1236,7.1224,7.1163,7.1226,7.1242,7.1198,7.1413,7.1342,7.1367,7.1456,7.167,7.1684,7.1697,7.1797,7.1825,7.1849,0,0,0,0,0,0,7.0957,7.0998,7.0971,7.112,7.1168,7.1207,7.1286,7.1254,7.132,7.1307,7.1289,7.1302,7.1437,7.1459,7.1379,7.1619,7.1532,7.1551,7.16,7.1627,7.1648,7.164,7.129,0,0,0,0,0,7.0995,7.1078,7.1109,7.1237,7.1263,7.1271,7.1316,7.1303,7.1352,7.1371,7.1397,7.1446,7.1524,7.1576,7.165,7.1809,7.182,7.1883,7.1905,7.1922,7.1939,7.2028,7.2057,7.1747,7.1747,7.1747,0,0,7.1075,7.1107,7.1161,7.1257,7.1293,7.138,7.1288,7.1383,7.1448,7.1386,7.151,7.153,7.1584,7.173,7.1795,7.1752,7.2027,7.1939,7.1953,7.1961,7.2044,7.2074,7.21,7.1756,7.1754,7.1753,0,0,7.1264,7.1297,7.1408,7.1446,7.1501,7.1505,7.1532,7.1578,7.1589,7.1713,7.1669,7.1746,7.1881,7.1922,7.196,7.2168,7.2131,7.2193,7.2305,7.2392,7.2416,7.2438,7.2514,7.2541,7.2209,7.2209,7.221,0,7.1356,7.1485,7.1469,7.1569,7.1614,7.1562,7.1676,7.1713,7.1789,7.1822,7.1772,7.1943,7.1975,7.2131,7.2182,7.2214,7.2245,7.2187,7.2414,7.2435,7.2455,7.2528,7.2556,7.2217,7.2216,7.2215,7.2214,0,7.1597,7.1687,7.177,7.1847,7.19,7.2007,7.2008,7.2064,7.2047,7.2057,7.2185,7.2222,7.2304,7.2339,7.2323,7.2494,7.2466,7.2416,7.2328,7.2492,7.256,7.2588,7.2227,7.2225,7.2222,7.2221,0,0,7.1848,7.1916,7.1947,7.1982,7.204,7.211,7.2214,7.2294,7.2344,7.2398,7.2487,7.2603,7.2558,7.2602,7.2589,7.2665,7.283,7.2606,7.2607,7.2648,7.3024,7.3063,7.3095,7.2806,7.2811,7.2815,7.302,0,7.2043,7.2225,7.2215,7.2386,7.2471,7.2424,7.2515,7.2561,7.2574,7.2647,7.2661,7.2745,7.2678,7.2704,7.2777,7.2795,7.2906,7.278,7.2889,7.2893,7.2879,7.313,7.3171,7.3362,7.3046,7.3051,7.3054,0,7.2294,7.2358,7.2539,7.2586,7.2621,7.2703,7.2777,7.2848,7.2899,7.2903,7.2954,7.293,7.3036,7.2946,7.3093,7.3008,7.3052,7.3068,7.3075,7.3086,7.2984,7.3149,7.3423,7.3453,7.3095,7.3092,7.3089,0,7.2462,7.2594,7.2719,7.275,7.2808,7.2868,7.2894,7.2941,7.299,7.3055,7.3087,7.3163,7.3205,7.3265,7.3262,7.3196,7.3414,7.3322,7.3421,7.3422,7.347,7.3467,7.3756,7.3496,7.3495,7.3495,7.3494,0,7.2681,7.2794,7.2796,7.2874,7.2999,7.2986,7.3111,7.3131,7.3174,7.3255,7.3218,7.3296,7.3287,7.3365,7.3363,7.3487,7.3506,7.3513,7.3512,7.3518,7.3517,7.3547,7.3535,7.3502,7.3501,7.3499,7.3498,0,7.2891,7.2897,7.3031,7.3075,7.3089,7.318,7.3218,7.3292,7.3302,7.3405,7.3429,7.3445,7.3535,7.3538,7.3641,7.364,7.3793,7.3775,7.3776,7.3773,7.3873,7.3864,7.4193,7.4236,7.3946,7.3949,7.3951,0,7.3031,7.3117,7.3171,7.3223,7.3254,7.3338,7.3389,7.338,7.3435,7.3501,7.3568,7.3655,7.3724,7.387,7.3891,7.3971,7.3956,7.4066,7.3968,7.3972,7.3961,7.3956,7.3966,7.4086,7.4089,7.4092,7.4094,0,7.3281,7.328,7.3354,7.3431,7.3493,7.3553,7.3608,7.3653,7.3651,7.3714,7.3806,7.386,7.3967,7.4054,7.4132,7.4159,7.4128,7.4124,7.4152,7.416,7.4157,7.4162,7.383,7.4117,7.4115,7.4113,7.4112,7.4111,7.3461,7.3536,7.3587,7.3672,7.3713,7.3766,7.3838,7.3858,7.3935,7.4021,7.4011,7.4114,7.4165,7.4266,7.4301,7.4382,7.4344,7.4384,7.4394,7.4405,7.4416,7.4143,7.4396,7.4395,7.4395,7.4394,7.4394,0,7.3711,7.3741,7.3819,7.3899,7.3966,7.393,7.399,7.4049,7.414,7.4191,7.426,7.4367,7.4452,7.448,7.4563,7.4623,7.4611,7.4645,7.4641,7.4649,7.4444,7.4413,7.4654,7.4654,7.4654,7.4654,7.4654,7.4654,7.3848,7.3974,7.398,7.4126,7.4155,7.4256,7.4294,7.4344,7.4384,7.4506,7.4576,7.4594,7.4637,7.4722,7.4799,7.4806,7.4839,7.488,7.4881,7.4689,7.4663,7.4638,7.4609,7.4887,7.4887,7.5079,7.5081,7.5082]},{"header":{"parameterUnit":"m.s-1","parameterCategory":1,"la1":30.2991,"la2":30.254,"lo1":-89.0895,"lo2":-89.0444,"dy":0.0017,"dx":0.0017,"nx":28,"ny":28,"refTime":"2025-03-08T03:00:00:Z","depth":0,"parameterNumber":3,"parameterNumberName":"V-component_of_WINDS"},"data":[0,0,0,0,0,0,0,0,0,0,0,0,0,0,0,0,0,0,0,0,0,0,0,0,0,0,0,0,0,0,0,0,0,0,0,0,0,0,0,0,0,0,0,0,0,0,0,0,0,0,0,0,0,0,0,0,0,0,-1.7136,-1.7135,0,-1.7008,-1.7007,-1.7005,-1.6947,-1.6947,-1.6947,-1.6947,-1.6808,-1.6805,-1.6801,0,0,0,0,0,0,0,0,0,0,0,0,0,-1.7325,-1.7321,-1.7136,-1.7135,-1.7133,-1.7008,-1.7006,-1.7005,-1.6947,-1.6947,-1.6947,-1.6947,-1.681,-1.6805,-1.68,0,0,0,0,0,0,0,0,0,0,0,0,0,-1.7224,-1.732,-1.7137,-1.7089,-1.7084,-1.7009,-1.7006,-1.7004,-1.6947,-1.6947,-1.6947,-1.6947,-1.6811,-1.6805,-1.68,-1.676,0,0,-1.6782,-1.678,0,0,0,0,0,0,0,0,-1.723,-1.7217,-1.7098,-1.7092,-1.7086,-1.6994,-1.7022,-1.6922,-1.6947,-1.6998,-1.6947,-1.6947,-1.6869,-1.6859,-1.6834,-1.6753,-1.6747,-1.6782,-1.6778,-1.6776,-1.6774,0,0,0,0,0,0,0,-1.7237,-1.7222,-1.7085,-1.7096,-1.7089,-1.7072,-1.7058,-1.7003,-1.6934,-1.6994,-1.6989,-1.6976,-1.6866,-1.684,-1.683,-1.6745,-1.6782,-1.6777,-1.6773,-1.6771,-1.6625,-1.6625,0,0,0,0,0,0,-1.7253,-1.7229,-1.7089,-1.7081,-1.716,-1.7069,-1.7053,-1.7023,-1.6934,-1.6921,-1.6975,-1.6973,-1.6849,-1.6837,-1.6825,-1.6773,-1.6776,-1.677,-1.6767,-1.6626,-1.6625,-1.6625,0,0,0,0,0,0,-1.7257,-1.7241,-1.7094,-1.7154,-1.7134,-1.7065,-1.7032,-1.702,-1.6994,-1.6921,-1.6907,-1.6962,-1.6849,-1.6833,-1.6777,-1.6767,-1.6768,-1.6762,-1.6626,-1.6626,-1.6625,-1.6668,0,0,0,0,0,0,-1.7263,-1.7243,-1.7228,-1.7154,-1.7131,-1.7051,-1.7031,-1.7018,-1.6985,-1.6981,-1.6904,-1.6891,-1.6848,-1.6786,-1.6771,-1.6759,-1.6758,-1.6627,-1.6626,-1.6625,-1.6667,-1.6669,-1.667,0,0,0,0,0,-1.7269,-1.7243,-1.7228,-1.7211,-1.7112,-1.705,-1.7037,-1.699,-1.6985,-1.6968,-1.6921,-1.6894,-1.6771,-1.6781,-1.6764,-1.675,-1.6627,-1.6626,-1.6625,-1.6666,-1.6668,-1.667,0,0,0,0,0,0,-1.7315,-1.7233,-1.7214,-1.7164,-1.7115,-1.7041,-1.7019,-1.6993,-1.6943,-1.6941,-1.6882,-1.6865,-1.6814,-1.6776,-1.6788,-1.6706,-1.6696,-1.6692,-1.6733,-1.6735,-1.6736,-1.6746,-1.6753,0,0,0,0,0,-1.732,-1.7279,-1.7208,-1.717,-1.7147,-1.7087,-1.7059,-1.7027,-1.6973,-1.6951,-1.6899,-1.6846,-1.6795,-1.6763,-1.6712,-1.6661,-1.6643,-1.6643,-1.6645,-1.6647,-1.6643,-1.6614,-1.6613,-1.6622,-1.6622,-1.6622,0,0,-1.7327,-1.7278,-1.7255,-1.7178,-1.7136,-1.7093,-1.707,-1.7025,-1.6992,-1.6943,-1.6888,-1.6849,-1.6785,-1.6732,-1.6705,-1.6698,-1.6637,-1.6646,-1.6648,-1.6643,-1.6613,-1.6612,-1.6611,-1.6621,-1.6621,-1.6621,0,0,-1.7321,-1.7279,-1.7244,-1.7203,-1.7141,-1.7102,-1.7094,-1.7024,-1.6997,-1.6941,-1.6904,-1.6862,-1.6776,-1.6733,-1.6699,-1.6678,-1.6651,-1.6663,-1.6671,-1.6643,-1.6643,-1.6642,-1.6634,-1.6632,-1.666,-1.666,-1.666,0,-1.7338,-1.7274,-1.7228,-1.7186,-1.7153,-1.711,-1.7072,-1.7034,-1.6958,-1.6936,-1.693,-1.6822,-1.6776,-1.6712,-1.6707,-1.6682,-1.6669,-1.6671,-1.6647,-1.6646,-1.6644,-1.6636,-1.6633,-1.6662,-1.6662,-1.6662,-1.6662,0,-1.7298,-1.7254,-1.7232,-1.7164,-1.7128,-1.7089,-1.7035,-1.7004,-1.6976,-1.6938,-1.6881,-1.6825,-1.6763,-1.6745,-1.6716,-1.6677,-1.6675,-1.6659,-1.6647,-1.6646,-1.6637,-1.6634,-1.6665,-1.6664,-1.6664,-1.6663,0,0,-1.7314,-1.7222,-1.7215,-1.7184,-1.7113,-1.7077,-1.7036,-1.6978,-1.6952,-1.6901,-1.6864,-1.6794,-1.6779,-1.6741,-1.6707,-1.6683,-1.667,-1.6669,-1.6667,-1.6671,-1.6624,-1.6636,-1.6633,-1.6652,-1.6651,-1.665,-1.6629,0,-1.7297,-1.7224,-1.7182,-1.7124,-1.7083,-1.7042,-1.7006,-1.6958,-1.6921,-1.6879,-1.6837,-1.6788,-1.6772,-1.6749,-1.6724,-1.6677,-1.6659,-1.6678,-1.6615,-1.6613,-1.6632,-1.6629,-1.6641,-1.6624,-1.6625,-1.6625,-1.6624,0,-1.7267,-1.7221,-1.716,-1.7096,-1.7077,-1.7046,-1.6989,-1.695,-1.6895,-1.6869,-1.6829,-1.6795,-1.6748,-1.6742,-1.6676,-1.669,-1.6661,-1.6635,-1.6633,-1.6624,-1.6618,-1.662,-1.6617,-1.6615,-1.6619,-1.6619,-1.6619,0,-1.7285,-1.7207,-1.7161,-1.7135,-1.7059,-1.7038,-1.7005,-1.695,-1.6918,-1.6868,-1.6847,-1.6791,-1.6761,-1.6718,-1.667,-1.6669,-1.6608,-1.6598,-1.6585,-1.6586,-1.6572,-1.6574,-1.6565,-1.6556,-1.6556,-1.6556,-1.6556,0,-1.727,-1.7235,-1.7169,-1.714,-1.7099,-1.7051,-1.7011,-1.6974,-1.6926,-1.6888,-1.6849,-1.6814,-1.6753,-1.671,-1.6672,-1.6623,-1.6609,-1.6586,-1.6576,-1.6589,-1.6592,-1.6569,-1.6569,-1.6555,-1.6555,-1.6555,-1.6555,0,-1.7283,-1.7237,-1.7185,-1.7118,-1.71,-1.7073,-1.7015,-1.6985,-1.6947,-1.69,-1.6886,-1.6825,-1.6773,-1.6722,-1.665,-1.6625,-1.6576,-1.6563,-1.6596,-1.659,-1.658,-1.6582,-1.6555,-1.6549,-1.6545,-1.6545,-1.6546,0,-1.7276,-1.7249,-1.718,-1.7154,-1.7122,-1.708,-1.7048,-1.6999,-1.6967,-1.6903,-1.6881,-1.6827,-1.678,-1.6699,-1.6647,-1.6592,-1.6577,-1.6572,-1.6568,-1.6583,-1.6577,-1.6579,-1.6576,-1.6573,-1.6573,-1.6574,-1.6574,0,-1.7269,-1.7249,-1.7206,-1.7155,-1.7119,-1.7076,-1.7032,-1.7012,-1.6954,-1.692,-1.6868,-1.6833,-1.6762,-1.6708,-1.6648,-1.6611,-1.6582,-1.6576,-1.657,-1.6582,-1.6603,-1.6592,-1.66,-1.6576,-1.6576,-1.6576,-1.6576,-1.6576,-1.7271,-1.7245,-1.7194,-1.7147,-1.711,-1.707,-1.7039,-1.6998,-1.6955,-1.6895,-1.6868,-1.6816,-1.6761,-1.6678,-1.6643,-1.66,-1.6592,-1.6583,-1.6581,-1.6579,-1.6583,-1.6611,-1.6588,-1.6588,-1.6588,-1.6588,-1.6588,0,-1.7262,-1.7228,-1.7186,-1.7127,-1.709,-1.707,-1.702,-1.699,-1.6945,-1.6898,-1.6854,-1.6795,-1.6743,-1.6688,-1.6633,-1.6609,-1.6594,-1.6596,-1.6596,-1.6588,-1.6592,-1.6603,-1.6608,-1.6608,-1.6608,-1.6608,-1.6608,-1.6608,-1.7253,-1.7208,-1.7182,-1.7118,-1.7082,-1.7033,-1.7006,-1.6968,-1.6931,-1.6867,-1.6825,-1.6791,-1.674,-1.6681,-1.6632,-1.6617,-1.6598,-1.6604,-1.6585,-1.6589,-1.6588,-1.6587,-1.6596,-1.66,-1.66,-1.6584,-1.6584,-1.6584]}]]